SAUDISAT 1C

Last updated on July 6, 2021, 3:44 p.m. UTC

1 27607U 02058C   21187.20706464 -.00000005  00000-0  19754-4 0  9991
2 27607  64.5557 280.9983 0042816  14.7187 345.5150 14.75762833997480
UTC
Height (km)
Latitude
Longitude
Inclination
Orbital Period
UTC large
Height (km)
Speed (km/s)
/
Latitude / Longitude
Inclination (degrees)
Orbital Period (minutes)
Azimuth
Elevation
Range (km)
Doppler Factor
iOS Compass Heading
iOS Angle